Location: Sabalos
(43.2860°N, 0.1414°E)
Time: 01:12:28
(UTC+00:00)

Atlas Centaur 2 - Visible Passes

Search period start: 24 October 2020 00:00
Search period end: 03 November 2020 00:00
Orbit: 459 x 1310 km, 30.4° (Epoch: 23 October)

Date Brightness Start Highest point End Pass type
(mag) Time Alt. Az. Time Alt. Az. Time Alt. Az.
24 Oct 4.8 17:37:08 10° S 17:42:05 17° SSE 17:46:57 10° ESE visible
24 Oct 4.0 19:23:45 10° SW 19:30:42 29° S 19:31:14 28° SSE visible
24 Oct 5.1 21:12:33 10° WSW 21:13:50 14° WSW 21:13:50 14° WSW visible
25 Oct 4.7 17:32:16 10° SSW 17:37:50 20° SSE 17:43:25 10° ESE visible
25 Oct 4.0 19:19:23 10° SW 19:26:32 30° S 19:27:34 30° SSE visible
25 Oct 5.0 21:08:22 10° WSW 21:10:10 16° WSW 21:10:10 16° WSW visible
26 Oct 4.6 17:27:35 10° SSW 17:33:35 22° SSE 17:39:41 10° ESE visible
26 Oct 3.9 19:15:05 10° SW 19:22:21 32° S 19:23:51 30° SSE visible
26 Oct 4.9 21:04:12 10° WSW 21:06:27 18° WSW 21:06:27 18° WSW visible
27 Oct 4.5 17:23:03 10° SSW 17:29:22 25° SSE 17:35:50 10° ESE visible
27 Oct 3.9 19:10:50 10° WSW 19:18:10 33° S 19:20:08 30° SSE visible
27 Oct 4.9 21:00:07 10° WSW 21:02:43 19° SW 21:02:43 19° SW visible
28 Oct 4.4 17:18:39 10° SW 17:25:09 27° SSE 17:31:54 10° ESE visible
28 Oct 4.0 19:06:40 10° WSW 19:13:59 33° S 19:16:24 29° SSE visible
28 Oct 4.9 20:56:04 10° WSW 20:59:00 19° SW 20:59:00 19° SW visible
29 Oct 4.4 17:14:20 10° SW 17:20:56 29° SSE 17:27:54 10° ESE visible
29 Oct 4.1 19:02:32 10° WSW 19:09:47 33° S 19:12:40 27° SSE visible
29 Oct 4.9 20:52:06 10° WSW 20:55:15 19° SW 20:55:15 19° SW visible
30 Oct 4.3 17:10:07 10° SW 17:16:44 30° S 17:23:49 10° ESE visible
30 Oct 4.1 18:58:27 10° WSW 19:05:36 32° S 19:08:57 25° SSE visible
30 Oct 4.9 20:48:12 10° WSW 20:51:33 19° SW 20:51:33 19° SW visible
31 Oct 4.2 18:54:26 10° WSW 19:01:25 31° S 19:05:17 22° SSE visible
31 Oct 4.9 20:44:25 10° WSW 20:47:53 18° SW 20:47:53 18° SW visible
01 Nov 4.3 18:50:28 10° WSW 18:57:13 29° S 19:01:40 19° SSE visible
01 Nov 5.0 20:40:48 10° WSW 20:44:16 16° SW 20:44:16 16° SW visible
02 Nov 4.5 18:46:33 10° WSW 18:53:01 27° SSW 18:58:07 15° SSE visible
02 Nov 5.1 20:37:26 10° WSW 20:40:43 14° SW 20:40:43 14° SW visible
